VIZARD-METEO (RS38S)

Last updated on Thu Jul 03 2025 00:03:07 GMT+0000 (Coordinated Universal Time)

1 57189U 23091Z 25183.58185269 .00008613 00000+0 35916-3 0 9992 2 57189 97.5585 243.3593 0008614 219.6248 140.4360 15.23906765111242
UTC large
Height (km)
Speed (km/s)
/
Latitude / Longitude
Inclination (degrees)
Orbital Period (minutes)
Azimuth
Elevation
Range (km)
Doppler Factor

Next 0 passes for location: London (51.5072 / 0.1276)

Sorry there are no passes over London.